Time,TemperatureF,DewpointF,PressureIn,WindDirection,WindDirectionDegrees,WindSpeedMPH,WindSpeedGustMPH,Humidity,HourlyPrecipIn,Conditions,Clouds,dailyrainin,SoftwareType,DateUTC
2014-04-21 00:01:00,37.8,20.3,30.18,ESE,111,5.8,7.6,49,0.00,,,0.00,VWS V14.01,2014-04-21 04:01:00,
2014-04-21 00:02:00,37.8,20.3,30.18,ESE,111,5.3,7.6,49,0.00,,,0.00,VWS V14.01,2014-04-21 04:02:00,
2014-04-21 00:07:00,37.8,20.3,30.18,East,82,1.8,7.6,49,0.00,,,0.00,VWS V14.01,2014-04-21 04:07:00,
2014-04-21 00:12:00,37.6,20.2,30.18,East,87,1.8,7.6,49,0.00,,,0.00,VWS V14.01,2014-04-21 04:12:00,
2014-04-21 00:17:00,37.6,20.2,30.18,East,97,1.8,7.6,49,0.00,,,0.00,VWS V14.01,2014-04-21 04:17:00,
2014-04-21 00:22:00,37.6,20.2,30.18,East,98,1.8,7.6,49,0.00,,,0.00,VWS V14.01,2014-04-21 04:22:00,
2014-04-21 00:27:00,37.6,20.2,30.15,East,101,1.8,7.6,49,0.00,,,0.00,VWS V14.01,2014-04-21 04:27:00,
2014-04-21 00:32:00,37.6,20.2,30.15,East,90,1.8,7.6,49,0.00,,,0.00,VWS V14.01,2014-04-21 04:32:00,
2014-04-21 00:37:00,37.6,20.2,30.15,East,83,1.8,7.6,49,0.00,,,0.00,VWS V14.01,2014-04-21 04:37:00,
2014-04-21 00:42:00,37.4,20.5,30.15,East,83,1.8,7.6,50,0.00,,,0.00,VWS V14.01,2014-04-21 04:42:00,
2014-04-21 00:47:00,37.2,20.3,30.15,East,83,1.8,7.6,50,0.00,,,0.00,VWS V14.01,2014-04-21 04:47:00,
2014-04-21 00:52:00,37.0,20.1,30.15,East,83,1.8,7.6,50,0.00,,,0.00,VWS V14.01,2014-04-21 04:52:00,
2014-04-21 00:57:00,36.9,20.0,30.15,East,83,1.8,7.6,50,0.00,,,0.00,VWS V14.01,2014-04-21 04:57:00,
2014-04-21 01:02:00,36.9,20.0,30.15,East,83,1.8,1.8,50,0.00,,,0.00,VWS V14.01,2014-04-21 05:02:00,
2014-04-21 01:07:00,36.7,20.3,30.15,East,83,1.8,1.8,51,0.00,,,0.00,VWS V14.01,2014-04-21 05:07:00,
2014-04-21 01:12:00,36.7,20.3,30.15,East,83,1.8,1.8,51,0.00,,,0.00,VWS V14.01,2014-04-21 05:12:00,
2014-04-21 01:17:00,36.5,20.1,30.15,East,83,1.8,1.8,51,0.00,,,0.00,VWS V14.01,2014-04-21 05:17:00,
2014-04-21 01:22:00,36.3,19.9,30.15,East,88,1.8,1.8,51,0.00,,,0.00,VWS V14.01,2014-04-21 05:22:00,
2014-04-21 01:27:00,36.3,19.9,30.15,East,88,1.8,1.8,51,0.00,,,0.00,VWS V14.01,2014-04-21 05:27:00,
2014-04-21 01:32:00,36.1,19.8,30.15,East,88,1.8,1.8,51,0.00,,,0.00,VWS V14.01,2014-04-21 05:32:00,
2014-04-21 01:37:00,36.1,19.8,30.15,East,88,1.8,1.8,51,0.00,,,0.00,VWS V14.01,2014-04-21 05:37:00,
2014-04-21 01:42:00,36.0,20.1,30.12,ESE,112,1.8,1.8,52,0.00,,,0.00,VWS V14.01,2014-04-21 05:42:00,
2014-04-21 01:47:00,35.8,19.9,30.12,ESE,109,1.8,1.8,52,0.00,,,0.00,VWS V14.01,2014-04-21 05:47:00,
2014-04-21 01:52:00,35.8,19.9,30.12,ESE,112,1.8,1.8,52,0.00,,,0.00,VWS V14.01,2014-04-21 05:52:00,
2014-04-21 01:57:00,35.8,19.9,30.12,SE,138,1.8,1.8,52,0.00,,,0.00,VWS V14.01,2014-04-21 05:57:00,
2014-04-21 02:02:00,35.8,20.3,30.12,SE,137,1.8,1.8,53,0.00,,,0.00,VWS V14.01,2014-04-21 06:02:00,
2014-04-21 02:07:00,35.8,20.3,30.12,SE,137,1.8,1.8,53,0.00,,,0.00,VWS V14.01,2014-04-21 06:07:00,
2014-04-21 02:12:00,35.8,20.3,30.12,SE,137,1.8,1.8,53,0.00,,,0.00,VWS V14.01,2014-04-21 06:12:00,
2014-04-21 02:17:00,35.6,20.2,30.12,East,99,1.8,1.8,53,0.00,,,0.00,VWS V14.01,2014-04-21 06:17:00,
2014-04-21 02:22:00,35.6,20.2,30.12,ESE,105,1.8,1.8,53,0.00,,,0.00,VWS V14.01,2014-04-21 06:22:00,
2014-04-21 02:27:00,35.6,20.6,30.09,ESE,105,1.8,1.8,54,0.00,,,0.00,VWS V14.01,2014-04-21 06:27:00,
2014-04-21 02:32:00,35.8,20.8,30.09,ESE,105,1.8,1.8,54,0.00,,,0.00,VWS V14.01,2014-04-21 06:32:00,
2014-04-21 02:37:00,35.8,20.8,30.09,ESE,105,1.8,1.8,54,0.00,,,0.00,VWS V14.01,2014-04-21 06:37:00,
2014-04-21 02:42:00,35.6,20.6,30.09,ESE,105,1.8,1.8,54,0.00,,,0.00,VWS V14.01,2014-04-21 06:42:00,
2014-04-21 02:47:00,35.6,20.6,30.09,ESE,105,1.8,1.8,54,0.00,,,0.00,VWS V14.01,2014-04-21 06:47:00,
2014-04-21 02:52:00,35.4,20.9,30.09,ESE,105,1.8,1.8,55,0.00,,,0.00,VWS V14.01,2014-04-21 06:52:00,
2014-04-21 02:57:00,35.4,20.9,30.09,ESE,105,1.8,1.8,55,0.00,,,0.00,VWS V14.01,2014-04-21 06:57:00,
2014-04-21 03:02:00,35.4,20.9,30.09,ESE,105,1.8,1.8,55,0.00,,,0.00,VWS V14.01,2014-04-21 07:02:00,
2014-04-21 03:07:00,35.4,21.3,30.09,ESE,105,1.8,1.8,56,0.00,,,0.00,VWS V14.01,2014-04-21 07:07:00,
2014-04-21 03:12:00,35.4,21.3,30.09,SSE,153,1.8,1.8,56,0.00,,,0.00,VWS V14.01,2014-04-21 07:12:00,
2014-04-21 03:17:00,35.6,21.5,30.09,SSE,150,1.8,1.8,56,0.00,,,0.00,VWS V14.01,2014-04-21 07:17:00,
2014-04-21 03:22:00,35.6,21.5,30.09,ESE,116,1.8,1.8,56,0.00,,,0.00,VWS V14.01,2014-04-21 07:22:00,
2014-04-21 03:27:00,35.6,21.9,30.09,ESE,116,1.8,1.8,57,0.00,,,0.00,VWS V14.01,2014-04-21 07:27:00,
2014-04-21 03:32:00,35.6,21.9,30.09,ESE,116,1.8,1.8,57,0.00,,,0.00,VWS V14.01,2014-04-21 07:32:00,
2014-04-21 03:37:00,35.6,21.9,30.09,ESE,116,1.8,1.8,57,0.00,,,0.00,VWS V14.01,2014-04-21 07:37:00,
2014-04-21 03:42:00,35.6,22.3,30.09,ESE,116,1.8,4.4,58,0.00,,,0.00,VWS V14.01,2014-04-21 07:42:00,
2014-04-21 03:47:00,35.6,22.3,30.09,ESE,116,1.8,4.4,58,0.00,,,0.00,VWS V14.01,2014-04-21 07:47:00,
2014-04-21 03:52:00,35.4,22.1,30.09,ESE,116,1.8,4.4,58,0.00,,,0.00,VWS V14.01,2014-04-21 07:52:00,
2014-04-21 03:57:00,35.4,22.1,30.09,ESE,115,1.8,4.4,58,0.00,,,0.00,VWS V14.01,2014-04-21 07:57:00,
2014-04-21 04:02:00,35.2,22.0,30.09,ESE,116,1.8,1.8,58,0.00,,,0.00,VWS V14.01,2014-04-21 08:02:00,
2014-04-21 04:07:00,35.1,22.2,30.09,ESE,115,1.8,1.8,59,0.00,,,0.00,VWS V14.01,2014-04-21 08:07:00,
2014-04-21 04:12:00,35.1,22.2,30.09,ESE,115,1.8,1.8,59,0.00,,,0.00,VWS V14.01,2014-04-21 08:12:00,
2014-04-21 04:17:00,34.9,22.0,30.09,ESE,116,1.8,1.8,59,0.00,,,0.00,VWS V14.01,2014-04-21 08:17:00,
2014-04-21 04:22:00,34.9,22.0,30.09,ESE,115,1.8,1.8,59,0.00,,,0.00,VWS V14.01,2014-04-21 08:22:00,
2014-04-21 04:27:00,34.7,21.9,30.06,ESE,115,1.8,1.8,59,0.00,,,0.00,VWS V14.01,2014-04-21 08:27:00,
2014-04-21 04:32:00,34.5,21.7,30.06,ESE,115,1.8,1.8,59,0.00,,,0.00,VWS V14.01,2014-04-21 08:32:00,
2014-04-21 04:37:00,34.3,21.5,30.06,ESE,116,1.8,1.8,59,0.00,,,0.00,VWS V14.01,2014-04-21 08:37:00,
2014-04-21 04:42:00,34.2,21.7,30.06,ESE,116,1.8,1.8,60,0.00,,,0.00,VWS V14.01,2014-04-21 08:42:00,
2014-04-21 04:47:00,34.3,21.9,30.06,ESE,116,1.8,1.8,60,0.00,,,0.00,VWS V14.01,2014-04-21 08:47:00,
2014-04-21 04:52:00,34.5,22.1,30.06,ESE,115,1.8,1.8,60,0.00,,,0.00,VWS V14.01,2014-04-21 08:52:00,
2014-04-21 04:57:00,34.5,22.5,30.06,ESE,116,1.8,1.8,61,0.00,,,0.00,VWS V14.01,2014-04-21 08:57:00,
2014-04-21 05:02:00,34.5,22.5,30.06,ESE,116,1.8,1.8,61,0.00,,,0.00,VWS V14.01,2014-04-21 09:02:00,
2014-04-21 05:07:00,34.3,22.3,30.06,ESE,116,1.8,1.8,61,0.00,,,0.00,VWS V14.01,2014-04-21 09:07:00,
2014-04-21 05:12:00,34.2,22.1,30.09,ESE,116,1.8,1.8,61,0.00,,,0.00,VWS V14.01,2014-04-21 09:12:00,
2014-04-21 05:17:00,34.0,22.0,30.09,ESE,116,1.8,1.8,61,0.00,,,0.00,VWS V14.01,2014-04-21 09:17:00,
2014-04-21 05:22:00,33.8,21.8,30.09,ESE,116,1.8,1.8,61,0.00,,,0.00,VWS V14.01,2014-04-21 09:22:00,
2014-04-21 05:27:00,33.6,22.0,30.06,ESE,116,1.8,1.8,62,0.00,,,0.00,VWS V14.01,2014-04-21 09:27:00,
2014-04-21 05:32:00,33.3,21.3,30.06,ESE,116,1.8,1.8,61,0.00,,,0.00,VWS V14.01,2014-04-21 09:32:00,
2014-04-21 05:37:00,33.3,21.7,30.06,ESE,116,1.8,1.8,62,0.00,,,0.00,VWS V14.01,2014-04-21 09:37:00,
2014-04-21 05:42:00,33.3,21.7,30.06,ESE,116,1.8,1.8,62,0.00,,,0.00,VWS V14.01,2014-04-21 09:42:00,
2014-04-21 05:47:00,33.1,21.5,30.06,ESE,116,1.8,1.8,62,0.00,,,0.00,VWS V14.01,2014-04-21 09:47:00,
2014-04-21 05:52:00,33.1,21.5,30.06,ESE,116,1.8,1.8,62,0.00,,,0.00,VWS V14.01,2014-04-21 09:52:00,
2014-04-21 05:57:00,33.1,21.9,30.06,ESE,116,1.8,1.8,63,0.00,,,0.00,VWS V14.01,2014-04-21 09:57:00,
2014-04-21 06:02:00,32.9,21.3,30.06,ESE,116,1.8,1.8,62,0.00,,,0.00,VWS V14.01,2014-04-21 10:02:00,
2014-04-21 06:07:00,32.7,21.5,30.06,ESE,116,1.8,1.8,63,0.00,,,0.00,VWS V14.01,2014-04-21 10:07:00,
2014-04-21 06:12:00,32.7,21.5,30.06,ESE,116,1.8,1.8,63,0.00,,,0.00,VWS V14.01,2014-04-21 10:12:00,
2014-04-21 06:17:00,32.5,21.4,30.06,ESE,116,1.8,1.8,63,0.00,,,0.00,VWS V14.01,2014-04-21 10:17:00,
2014-04-21 06:22:00,32.5,21.4,30.06,ESE,116,1.8,1.8,63,0.00,,,0.00,VWS V14.01,2014-04-21 10:22:00,
2014-04-21 06:27:00,32.5,21.4,30.06,ESE,116,1.8,1.8,63,0.00,,,0.00,VWS V14.01,2014-04-21 10:27:00,
2014-04-21 06:32:00,32.7,21.9,30.06,ESE,116,1.8,1.8,64,0.00,,,0.00,VWS V14.01,2014-04-21 10:32:00,
2014-04-21 06:37:00,33.1,22.2,30.06,ESE,116,1.8,1.8,64,0.00,,,0.00,VWS V14.01,2014-04-21 10:37:00,
2014-04-21 06:42:00,33.3,22.4,30.06,ESE,116,1.8,1.8,64,0.00,,,0.00,VWS V14.01,2014-04-21 10:42:00,
2014-04-21 06:47:00,33.6,23.1,30.06,ESE,116,1.8,1.8,65,0.00,,,0.00,VWS V14.01,2014-04-21 10:47:00,
2014-04-21 06:52:00,34.3,23.8,30.06,ESE,116,1.8,1.8,65,0.00,,,0.00,VWS V14.01,2014-04-21 10:52:00,
2014-04-21 06:57:00,35.2,25.0,30.06,ESE,116,1.8,1.8,66,0.00,,,0.00,VWS V14.01,2014-04-21 10:57:00,
2014-04-21 07:02:00,36.0,25.7,30.06,ESE,116,1.8,1.8,66,0.00,,,0.00,VWS V14.01,2014-04-21 11:02:00,
2014-04-21 07:07:00,36.9,26.9,30.06,ESE,116,1.8,1.8,67,0.00,,,0.00,VWS V14.01,2014-04-21 11:07:00,
2014-04-21 07:12:00,37.4,27.1,30.06,ESE,115,1.8,1.8,66,0.00,,,0.00,VWS V14.01,2014-04-21 11:12:00,
2014-04-21 07:17:00,37.9,27.6,30.06,ESE,116,1.8,1.8,66,0.00,,,0.00,VWS V14.01,2014-04-21 11:17:00,
2014-04-21 07:22:00,38.5,28.5,30.06,ESE,116,1.8,1.8,67,0.00,,,0.00,VWS V14.01,2014-04-21 11:22:00,
2014-04-21 07:27:00,38.8,28.8,30.06,ESE,116,1.8,1.8,67,0.00,,,0.00,VWS V14.01,2014-04-21 11:27:00,
2014-04-21 07:32:00,39.2,28.8,30.06,ESE,116,1.8,1.8,66,0.00,,,0.00,VWS V14.01,2014-04-21 11:32:00,
2014-04-21 07:37:00,39.6,29.1,30.06,ESE,115,1.8,1.8,66,0.00,,,0.00,VWS V14.01,2014-04-21 11:37:00,
2014-04-21 07:42:00,40.1,30.0,30.06,ESE,116,1.8,1.8,67,0.00,,,0.00,VWS V14.01,2014-04-21 11:42:00,
2014-04-21 07:47:00,40.5,30.4,30.06,ESE,116,1.8,1.8,67,0.00,,,0.00,VWS V14.01,2014-04-21 11:47:00,
2014-04-21 07:52:00,41.0,30.9,30.06,ESE,116,1.8,1.8,67,0.00,,,0.00,VWS V14.01,2014-04-21 11:52:00,
2014-04-21 07:57:00,41.5,31.4,30.06,ESE,116,1.8,1.8,67,0.00,,,0.00,VWS V14.01,2014-04-21 11:57:00,
2014-04-21 08:02:00,42.1,32.3,30.06,ESE,116,1.8,1.8,68,0.00,,,0.00,VWS V14.01,2014-04-21 12:02:00,
2014-04-21 08:07:00,42.4,33.0,30.06,ESE,115,1.8,1.8,69,0.00,,,0.00,VWS V14.01,2014-04-21 12:07:00,
2014-04-21 08:12:00,42.6,33.2,30.06,ESE,116,1.8,1.8,69,0.00,,,0.00,VWS V14.01,2014-04-21 12:12:00,
2014-04-21 08:17:00,42.8,33.0,30.06,ESE,116,1.8,1.8,68,0.00,,,0.00,VWS V14.01,2014-04-21 12:17:00,
2014-04-21 08:22:00,43.0,33.2,30.06,ESE,116,1.8,1.8,68,0.00,,,0.00,VWS V14.01,2014-04-21 12:22:00,
2014-04-21 08:27:00,43.3,33.5,30.06,ESE,116,1.8,1.8,68,0.00,,,0.00,VWS V14.01,2014-04-21 12:27:00,
2014-04-21 08:32:00,43.5,33.7,30.06,WNW,292,1.8,1.8,68,0.00,,,0.00,VWS V14.01,2014-04-21 12:32:00,
2014-04-21 08:37:00,43.7,33.5,30.06,WNW,297,1.8,1.8,67,0.00,,,0.00,VWS V14.01,2014-04-21 12:37:00,
2014-04-21 08:42:00,43.7,33.1,30.06,WNW,302,1.8,1.8,66,0.00,,,0.00,VWS V14.01,2014-04-21 12:42:00,
2014-04-21 08:47:00,43.9,32.9,30.06,WNW,303,1.8,1.8,65,0.00,,,0.00,VWS V14.01,2014-04-21 12:47:00,
2014-04-21 08:52:00,44.2,33.2,30.06,West,268,1.8,1.8,65,0.00,,,0.00,VWS V14.01,2014-04-21 12:52:00,
2014-04-21 08:57:00,44.6,33.2,30.03,West,269,1.8,1.8,64,0.00,,,0.00,VWS V14.01,2014-04-21 12:57:00,
2014-04-21 09:02:00,45.1,33.3,30.03,WNW,300,1.8,1.8,63,0.00,,,0.00,VWS V14.01,2014-04-21 13:02:00,
2014-04-21 09:07:00,45.1,32.1,30.03,WSW,252,1.8,1.8,60,0.00,,,0.00,VWS V14.01,2014-04-21 13:07:00,
2014-04-21 09:12:00,45.3,32.3,30.03,WSW,250,1.8,1.8,60,0.00,,,0.00,VWS V14.01,2014-04-21 13:12:00,
2014-04-21 09:17:00,45.7,32.6,30.03,WSW,247,1.8,1.8,60,0.00,,,0.00,VWS V14.01,2014-04-21 13:17:00,
2014-04-21 09:22:00,45.7,32.2,30.03,NW,316,1.8,1.8,59,0.00,,,0.00,VWS V14.01,2014-04-21 13:22:00,
2014-04-21 09:27:00,46.0,32.1,30.03,WNW,286,1.8,1.8,58,0.00,,,0.00,VWS V14.01,2014-04-21 13:27:00,
2014-04-21 09:32:00,46.2,32.3,30.03,WSW,254,1.8,1.8,58,0.00,,,0.00,VWS V14.01,2014-04-21 13:32:00,
2014-04-21 09:36:00,46.4,32.0,30.03,West,262,1.8,1.8,57,0.00,,,0.00,VWS V14.01,2014-04-21 13:36:00,
2014-04-21 09:41:00,46.4,32.0,30.03,West,260,1.8,1.8,57,0.00,,,0.00,VWS V14.01,2014-04-21 13:41:00,
2014-04-21 09:46:00,46.6,32.2,30.03,WSW,257,1.8,1.8,57,0.00,,,0.00,VWS V14.01,2014-04-21 13:46:00,
2014-04-21 09:51:00,46.8,31.9,30.03,WSW,258,1.8,1.8,56,0.00,,,0.00,VWS V14.01,2014-04-21 13:51:00,
2014-04-21 09:56:00,47.1,32.2,30.03,WNW,283,1.8,1.8,56,0.00,,,0.00,VWS V14.01,2014-04-21 13:56:00,
2014-04-21 10:01:00,47.3,32.0,30.03,WSW,253,4.9,5.8,55,0.00,,,0.00,VWS V14.01,2014-04-21 14:01:00,
2014-04-21 10:06:00,47.5,31.7,30.03,WSW,250,4.4,6.7,54,0.00,,,0.00,VWS V14.01,2014-04-21 14:06:00,
2014-04-21 10:11:00,47.7,31.4,30.00,WSW,255,1.8,6.7,53,0.00,,,0.00,VWS V14.01,2014-04-21 14:11:00,
2014-04-21 10:16:00,47.8,31.1,30.00,West,268,1.8,6.7,52,0.00,,,0.00,VWS V14.01,2014-04-21 14:16:00,
2014-04-21 10:21:00,48.2,30.9,30.00,WSW,246,1.8,6.7,51,0.00,,,0.00,VWS V14.01,2014-04-21 14:21:00,
2014-04-21 10:26:00,48.4,31.1,30.00,WSW,252,1.8,6.7,51,0.00,,,0.00,VWS V14.01,2014-04-21 14:26:00,
2014-04-21 10:31:00,48.7,31.0,30.00,West,262,1.8,6.7,50,0.00,,,0.00,VWS V14.01,2014-04-21 14:31:00,
2014-04-21 10:36:00,49.1,30.8,30.00,West,272,1.8,6.7,49,0.00,,,0.00,VWS V14.01,2014-04-21 14:36:00,
2014-04-21 10:41:00,49.5,30.6,30.00,West,277,1.8,6.7,48,0.00,,,0.00,VWS V14.01,2014-04-21 14:41:00,
2014-04-21 10:46:00,50.0,30.6,30.00,WSW,249,4.4,6.7,47,0.00,,,0.00,VWS V14.01,2014-04-21 14:46:00,
2014-04-21 10:51:00,50.2,30.2,30.00,WSW,244,4.4,7.1,46,0.00,,,0.00,VWS V14.01,2014-04-21 14:51:00,
2014-04-21 10:56:00,50.4,30.4,30.00,West,266,4.0,7.1,46,0.00,,,0.00,VWS V14.01,2014-04-21 14:56:00,
2014-04-21 11:01:00,50.7,29.6,30.00,WSW,256,1.8,1.8,44,0.00,,,0.00,VWS V14.01,2014-04-21 15:01:00,
2014-04-21 11:06:00,50.9,29.2,30.00,West,262,5.3,5.3,43,0.00,,,0.00,VWS V14.01,2014-04-21 15:06:00,
2014-04-21 11:11:00,51.1,28.8,30.00,WSW,256,1.8,5.8,42,0.00,,,0.00,VWS V14.01,2014-04-21 15:11:00,
2014-04-21 11:16:00,51.4,28.5,30.00,West,271,1.8,5.8,41,0.00,,,0.00,VWS V14.01,2014-04-21 15:16:00,
2014-04-21 11:21:00,51.8,28.3,30.00,WSW,249,4.9,5.8,40,0.00,,,0.00,VWS V14.01,2014-04-21 15:21:00,
2014-04-21 11:26:00,52.0,28.4,29.97,WSW,251,4.9,5.8,40,0.00,,,0.00,VWS V14.01,2014-04-21 15:26:00,
2014-04-21 11:31:00,52.3,28.1,29.97,WSW,245,1.8,5.8,39,0.00,,,0.00,VWS V14.01,2014-04-21 15:31:00,
2014-04-21 11:36:00,52.5,27.7,29.97,WSW,245,4.9,6.2,38,0.00,,,0.00,VWS V14.01,2014-04-21 15:36:00,
2014-04-21 11:41:00,52.7,27.2,29.97,West,259,5.8,6.2,37,0.00,,,0.00,VWS V14.01,2014-04-21 15:41:00,
2014-04-21 11:46:00,52.9,27.3,29.97,WSW,239,5.3,6.2,37,0.00,,,0.00,VWS V14.01,2014-04-21 15:46:00,
2014-04-21 11:51:00,52.9,27.3,29.97,WSW,250,1.8,6.2,37,0.00,,,0.00,VWS V14.01,2014-04-21 15:51:00,
2014-04-21 11:56:00,52.7,27.2,29.97,WSW,254,1.8,6.2,37,0.00,,,0.00,VWS V14.01,2014-04-21 15:56:00,
2014-04-21 12:01:00,52.9,27.3,29.97,WSW,253,1.8,1.8,37,0.00,,,0.00,VWS V14.01,2014-04-21 16:01:00,
2014-04-21 12:06:00,53.2,27.7,29.97,WSW,250,1.8,1.8,37,0.00,,,0.00,VWS V14.01,2014-04-21 16:06:00,
2014-04-21 12:11:00,53.6,27.3,29.94,WSW,240,1.8,1.8,36,0.00,,,0.00,VWS V14.01,2014-04-21 16:11:00,
2014-04-21 12:16:00,54.0,27.6,29.94,West,276,1.8,1.8,36,0.00,,,0.00,VWS V14.01,2014-04-21 16:16:00,
2014-04-21 12:21:00,54.1,27.8,29.94,West,267,1.8,5.3,36,0.00,,,0.00,VWS V14.01,2014-04-21 16:21:00,
2014-04-21 12:26:00,54.1,27.1,29.94,WSW,257,4.4,5.8,35,0.00,,,0.00,VWS V14.01,2014-04-21 16:26:00,
2014-04-21 12:31:00,54.3,27.3,29.94,WSW,255,1.8,5.8,35,0.00,,,0.00,VWS V14.01,2014-04-21 16:31:00,
2014-04-21 12:36:00,54.7,27.6,29.94,WSW,254,1.8,5.8,35,0.00,,,0.00,VWS V14.01,2014-04-21 16:36:00,